SL-14 DEB, 45270

Orbit data source: Space-Track

SL-14 DEB, 45270 is space debris in LEO originally from a launch on Thu, 15 Aug 1991 UTC launched from the Plesetsk Missile And Space Complex (PKMTR). Debris objects in space refer to the collection of defunct objects orbiting the Earth. Examples of debris include non-operational satellites, rocket bodies, and fragments generated from explosions, collisions, or faulty payload assembly.

Loading next visibility...
Identifier
45270, 1991-056G
Orbit
LEO
Country
Flag of CISCIS
Related business
Manufacturer
Unknown
Mission
Spacecraft
Bus & Motor
Unknown
Mass
Unknown
Launch date (UTC)
1991-08-15 (34 years ago)
Launch vehicle
Unknown
Launch site
Plesetsk Missile And Space Complex (PKMTR)
Object type
Payload
Rocket body
Debris
Shape & HBR
Unknown shape, 0.1 m
Radar Cross Section
Small (<0.1 m²)

Expand to show TLE details & history
Last TLE update: 11 hours ago

TLE from 11 hours ago
0 SL-14 DEB
1 45270U 91056G   25291.23436932  .00000230  00000-0  52113-3 0  9990
2 45270  82.5640 299.8641 0030715 294.3588  65.4332 13.22351752274073
Epoch: 2025-10-18T05:37Z
TLE epoch observation values (Epoch: 2025-10-18T05:37:29.509Z)
Latitude
Longitude
-171.47716°
Altitude
1,168.977 km
Speed
7.273 km/s
True Right ascension
19h 59m 27s
True Declination
0° 00' 00"
Sunlit
Object was in daylight at epoch
Visualization orbit readout
Latitude
Unknown
Longitude
Unknown
Altitude
Unknown
Speed
Unknown
Apparent Right ascension
Unknown
Apparent Declination
Unknown
Sunlit
N/A
Visualization observer readout
Local Sidereal Time
11:22:10
Azimuth
Unknown
Elevation
Unknown
Doppler factor
Unknown
Orbital elements
Apogee altitude
1,196.18 km
Perigee altitude
1,149.794 km
Semi-major axis
7,551.124 km
Eccentricity
0.00307
Inclination
82.564°
RAAN
299.8641°
Arg. of periapsis
294.3588°
True anomaly
65.75382°
Mean anomaly
65.4332°
Eccentric anomaly
65.59346°
Mean motion
3.3077 °/min
Orbital period
108.84 mins
BSTAR
0.00052113
Loading maneuver chart data...
Computing Atmospheric mass density...
Loading historical data...
Loading historical data...
Loading historical data...
Loading historical data...
Loading historical data...
Loading historical data...
Loading historical data...

Documentation

Showing up to 5 results
|